COSMOS 1275 DEB

Satellite information

Favourite Embed

Satellite Type and Status

DEBRISIN ORBIT

Key statistics

Satellite COSMOS 1275 DEB at a glance.

Uptime

16047

Days in orbit

Revolutions

≈ 13.9

Per day

Orbit

LEO

Low Earth Orbit

Inclination

82.8

Latest

Satellite identification and parameters

Extended collection of information and parameters for COSMOS 1275 DEB.

Object identification

Identified? True

Debris? True

Object name: COSMOS 1275 DEB

International designator: 1981-053FC

Object number (NORAD): 13456

Object ID (CCSDS): 13456

Country: COMMONWEALTH OF INDEPENDENT STATES (CIS)

Current information (Y/N): Y

RCS size: SMALL

Orbital parameters

Period: 103.881 minutes

Inclination: 82.8322 deg

SMA: 7320.095 km

Apoapsis: 1051.279 km

Periapsis: 832.64 km

RAAN: 310.8194 deg

Eccentricy: 0.0149342

Argument of periapsis: 116.1442 deg

Mean anomaly: 45.1078 deg

Mean motion: 13.86205818 rev/day

Mean motion (dot): 0.00003445 rev/day2

B* drag term: 0.0027217 1/REarth

Two-line elements (TLE)

Creation date: May 10, 2025, 10:26 p.m.

Reference frame: TEME

Reference center: EARTH

Epoch: May 10, 2025, 9:56 p.m. UTC

TLE line 0: 0 COSMOS 1275 DEB

TLE line 1: 1 13456U 81053FC 25130.91447270 .00003445 00000-0 27217-2 0 9998

TLE line 2: 2 13456 82.8322 310.8194 0149342 116.1442 45.1078 13.86205818156575

Live tracking on map

Real-time ground track for satellite COSMOS 1275 DEB.

In-orbit conjunctions

A list of the most updated potential collisions computed for object COSMOS 1275 DEB.

Target Orbit TCA Probability of collision Miss distance Type
SL-8 R/B LEO 2025-01-16 11:44:34 0.001025195 48.0 (m) ROCKET BODY
CZ-6A DEB SSO 2024-11-13 01:52:44 0.0001549225 159.0 (m) DEBRIS
SL-19 R/B SSO 2024-09-30 07:57:11 0.0001785492 174.0 (m) ROCKET BODY

Associated space launch

Navigation satellite providing location information for the Tsiklon-B navigation system

COSMOS 1275 DEB was lifted into orbit during the mission ‘Kosmos-3M | Parus 27’, on board a Kosmos-3M space rocket.

The launch took place on June 4, 1981, 3:41 p.m. from 132/2.

For more information about the launch, click the button.

Launch to space Kosmos-3M | Parus 27
Kosmos-3M | Parus 27

Agency: N/A

Status: Launch Successful

Launch date: June 4, 1981, 3:41 p.m. UTC

Rocket: Kosmos-3M

Launch pad: 132/2

Location: Plesetsk Cosmodrome, Russian Federation

...

Latest news about this satellite

There are no fresh news available about this satellite. Check back as we update our databases every day.


Newsletter sign-up

Weekly statistics, charts and insights to help you stay on top of the space industry.